Weather History for Saginaw, MI

Change the Weather History Date:

Thursday, July 18, 2013

  Actual Average Record
Temperature  
Mean Temperature 84 °F 71 °F  
Max Temperature 95 °F 82 °F 95 °F (2013)
Min Temperature 73 °F 60 °F 52 °F (2000)
Degree Days  
Heating Degree Days 0    
Month to date heating degree days 1  
Since 1 June heating degree days 54  
Since 1 July heating degree days 1  
Cooling Degree Days 19    
Month to date cooling degree days 178  
Year to date cooling degree days 391  
Since 1 June cooling degree days 317  
Growing Degree Days 33 (Base 50)    
Moisture  
Dew Point 71 °F    
Average Humidity 70    
Maximum Humidity 93    
Minimum Humidity 46    
Precipitation  
Precipitation 0.00 in 0.08 in 0.50 in (2007)
Month to date precipitation 0.35 1.46  
Year to date precipitation 21.24 16.09  
Snow  
Snow 0.00 in - - ()
Month to date snowfall 0.0  
Since 1 June snowfall 0.0  
Since 1 July snowfall 0.0  
Snow Depth 0.00 in    
Sea Level Pressure  
Sea Level Pressure 30.04 in    
Wind  
Wind Speed 9 mph (SW)    
Max Wind Speed 18 mph    
Max Gust Speed 23 mph    
Visibility 10 miles    
Events      
T = Trace of Precipitation, MM = Missing Value Source: NWS Daily Summary

Daily Weather History Graph

Daily Weather History Graph

Search for Another Location

Airport:

Trip Planner

Search our weather history database for the weather conditions in past years. The results will help you decide how hot, cold, wet, or windy it might be!

Date:

Astronomy

Jul. 18, 2013 Rise Set
Actual Time 6:11 AM EDT 9:12 PM EDT
Civil Twilight 5:37 AM EDT 9:46 PM EDT
Nautical Twilight 4:53 AM EDT 10:30 PM EDT
Astronomical Twilight 4:01 AM EDT 11:21 PM EDT
Moon 5:07 PM EDT (7/18) 2:03 AM EDT (7/18)
Length of Visible Light 16h 09m
Length of Day
15h 00m
Waxing Gibbous, 77% of the Moon is Illuminated
Jul 18
Waxing Gibbous
Jul 22
Full
Jul 29
Last Quarter
Aug 6
New
Aug 14
First Quarter

Hourly Weather History & Observations

Time (EDT) Temp. Heat Index Dew Point Humidity Pressure Visibility Wind Dir Wind Speed Gust Speed Precip Events Conditions
12:53 AM 77.0 °F - 71.1 °F 82% 30.15 in 10.0 mi WSW 8.1 mph - N/A   Clear
1:53 AM 75.9 °F - 71.1 °F 85% 30.15 in 10.0 mi West 6.9 mph - N/A   Clear
2:53 AM 75.0 °F - 71.1 °F 87% 30.13 in 10.0 mi WSW 6.9 mph - N/A   Clear
3:53 AM 75.0 °F - 71.1 °F 87% 30.12 in 10.0 mi WSW 6.9 mph - N/A   Clear
4:53 AM 73.9 °F - 71.1 °F 91% 30.11 in 10.0 mi SW 5.8 mph - N/A   Clear
5:53 AM 73.9 °F - 71.1 °F 91% 30.11 in 10.0 mi WSW 5.8 mph - N/A   Clear
6:53 AM 73.9 °F - 71.1 °F 91% 30.12 in 9.0 mi WSW 5.8 mph - N/A   Clear
7:53 AM 77.0 °F - 72.0 °F 84% 30.11 in 10.0 mi WSW 6.9 mph - N/A   Clear
8:53 AM 81.0 °F 85.8 °F 73.0 °F 77% 30.11 in 10.0 mi WSW 8.1 mph - N/A   Clear
9:53 AM 84.0 °F 91.2 °F 73.9 °F 72% 30.10 in 10.0 mi WSW 6.9 mph - N/A   Clear
10:53 AM 87.1 °F 95.4 °F 73.9 °F 65% 30.10 in 10.0 mi SW 6.9 mph - N/A   Clear
11:53 AM 90.0 °F 97.9 °F 73.0 °F 57% 30.09 in 10.0 mi WSW 8.1 mph - N/A   Clear
12:53 PM 91.0 °F 98.2 °F 72.0 °F 53% 30.07 in 10.0 mi SW 10.4 mph - N/A   Scattered Clouds
1:53 PM 91.9 °F 97.4 °F 70.0 °F 48% 30.04 in 10.0 mi SW 9.2 mph - N/A   Scattered Clouds
2:53 PM 91.9 °F 97.4 °F 70.0 °F 48% 30.03 in 10.0 mi SW 10.4 mph - N/A   Scattered Clouds
3:53 PM 93.9 °F 100.3 °F 70.0 °F 46% 30.00 in 10.0 mi SW 17.3 mph - N/A   Partly Cloudy
4:53 PM 93.9 °F 99.1 °F 69.1 °F 44% 29.98 in 10.0 mi WSW 12.7 mph - N/A   Clear
5:53 PM 93.0 °F 99.0 °F 70.0 °F 47% 29.95 in 10.0 mi SW 13.8 mph 21.9 mph N/A   Clear
6:53 PM 91.9 °F 100.7 °F 73.0 °F 54% 29.93 in 10.0 mi SSW 11.5 mph 23.0 mph N/A   Clear
7:53 PM 90.0 °F 94.5 °F 69.1 °F 50% 29.93 in 10.0 mi WSW 11.5 mph - N/A   Clear
8:53 PM 87.1 °F 91.3 °F 69.1 °F 55% 29.91 in 10.0 mi WSW 9.2 mph - N/A   Clear
9:53 PM 84.0 °F 89.0 °F 71.1 °F 65% 29.92 in 10.0 mi SW 9.2 mph - N/A   Clear
10:53 PM 82.0 °F 85.9 °F 70.0 °F 67% 29.93 in 10.0 mi SSW 6.9 mph - N/A   Clear
11:53 PM 82.0 °F 85.9 °F 70.0 °F 67% 29.91 in 10.0 mi SW 10.4 mph - N/A   Clear